Vorticity
4 4 4 5 5 5 5 6 5 5 6 5 6 7 7 7 7 9 10 9 8 11 12 13 9 9 7 9 9 7 8 9 5 9 17 15 3 7 1 8 -3 4 -3 8 10
5 5 5 4 5 5 5 5 5 5 5 6 6 6 7 8 9 9 13 12 11 11 13 11 12 13 9 8 8 6 9 13 10 12 7 -1 6 -2 -6 1 1 2 4 -0 2
5 5 5 5 5 5 5 5 5 5 6 6 7 6 6 9 11 15 13 10 9 10 10 11 10 10 11 13 8 6 3 11 3 1 1 10 6 6 5 -3 -4 5 10 7 11
5 5 6 6 5 4 5 5 5 6 7 6 5 6 6 8 15 -2 0 7 7 6 5 5 2 5 8 14 6 3 5 8 -6 1 3 -1 6 12 13 5 7 6 7 1 4
6 5 6 6 6 5 5 5 6 7 5 6 5 6 6 7 4 10 9 8 10 11 10 10 11 9 6 13 12 6 2 4 5 -4 1 1 3 -3 -2 5 -1 1 3 5 5
5 5 5 6 7 5 4 6 7 4 4 6 7 7 7 1 12 9 9 5 5 10 9 9 8 9 8 13 13 8 5 1 9 4 -2 3 4 1 4 19 10 8 4 1 0
4 5 6 4 3 6 9 9 6 -1 4 6 6 7 6 4 7 5 7 6 8 3 4 4 7 8 7 12 13 11 5 6 4 5 2 9 6 6 6 12 16 14 9 11 8
5 7 7 9 9 6 5 5 2 3 4 4 10 5 7 -2 13 6 7 4 4 2 3 3 3 6 5 7 2 8 17 16 14 22 18 8 7 8 5 12 4 2 5 5 4
5 3 4 6 4 4 4 5 2 2 6 -3 9 -0 20 13 27 19 12 12 14 14 9 6 6 6 6 5 7 14 -4 2 13 22 5 13 12 11 18 -3 4 8 11 8 5
4 -9 -1 10 -5 8 7 5 9 -3 7 2 9 6 26 18 10 -6 16 9 3 8 12 13 12 9 7 5 -14 14 19 12 13 7 -0 -3 19 15 8 22 9 1 8 18 19
-8 16 20 17 -9 -4 13 -1 5 5 4 -1 -36 -37 -21 -1 1 -11 -13 6 7 9 6 8 6 -4 10 12 16 -5 13 7 10 -5 4 2 8 4 6 4 2 1 8 4 5
22 21 7 14 1 15 6 28 34 10 24 5 3 8 -1 13 6 7 5 -1 12 10 5 4 1 8 10 7 7 8 4 10 9 -2 9 7 8 8 4 13 6 10 -5 2 8
-2 -17 24 20 27 8 21 12 -5 11 17 34 27 19 20 14 5 3 4 1 10 9 5 6 -31 55 17 9 6 5 6 8 -1 8 4 6 11 11 2 -6 1 -1 8 6 1
-15 -11 2 29 -0 -9 -34 -2 -9 10 19 12 45 41 39 29 12 20 15 2 6 6 8 29 21 8 -22 0 12 2 2 7 7 13 -2 11 3 24 37 36 24 14 10 5 1
60 37 14 18 26 -1 17 14 35 20 19 25 19 10 11 23 18 21 43 15 5 5 0 -25 19 32 23 14 10 6 2 0 25 2 12 25 11 14 57 15 24 7 -11 17 14
6 11 17 18 17 18 14 2 4 11 8 8 7 9 8 20 13 13 21 25 13 1 -2 5 -23 -21 -2 15 28 27 26 13 9 14 31 1 -9 41 26 33 46 25 30 19 23
1 1 13 9 9 6 3 17 -2 -8 10 20 5 8 2 9 13 6 5 13 -3 28 30 12 7 4 -5 -6 -5 -10 17 8 19 15 -8 33 31 -38 -14 -17 -6 -14 4 8 2
4 2 11 8 6 12 18 21 -6 37 -3 7 9 14 2 5 12 8 1 -0 9 1 -10 33 52 70 42 32 1 -11 3 -42 7 7 7 39 15 2 26 23 26 18 9 9 6
6 10 13 1 5 23 18 -9 6 31 41 -3 4 10 15 6 -7 9 24 17 6 23 -29 5 24 30 -10 1 61 13 15 9 -19 8 9 6 17 21 3 9 18 15 30 23 15
10 4 1 4 11 10 23 -15 -25 13 17 28 5 9 13 12 10 12 12 37 34 2 15 11 24 18 -12 2 13 33 7 13 12 6 -4 20 11 -17 11 12 15 8 8 11 19
21 3 10 27 10 8 -6 -14 34 -46 8 4 19 7 7 11 18 14 -2 4 21 21 29 11 -23 -19 -19 27 24 38 19 9 36 -3 7 9 16 40 4 -7 -1 2 12 8 14
10 13 17 9 12 8 -3 6 27 10 -18 -9 2 2 0 9 15 6 24 9 19 -8 -4 14 26 20 37 -5 5 13 30 14 -10 7 21 16 17 24 -12 2 11 -9 2 8 1
14 6 9 16 24 -5 -2 11 2 4 -7 32 4 3 -1 -12 7 12 -2 4 -6 13 48 31 1 28 32 34 9 13 3 7 -1 9 16 -0 21 -2 2 8 19 6 6 9 1
3 4 23 10 3 23 4 1 -6 11 1 -12 1 20 4 23 -2 0 13 14 17 13 -9 6 18 -4 -19 -22 2 24 5 -11 -11 11 -13 -13 -7 -6 -0 -3 -7 -0 10 7 13
4 -9 1 69 -2 24 5 5 15 7 -3 15 20 8 -11 8 11 10 17 -13 -12 -6 -29 6 16 -5 4 1 3 0 7 10 -17 -7 11 -2 -12 -8 -2 8 13 -7 3 12 7
-7 28 -18 -20 43 -0 3 -2 -1 5 6 6 -3 -10 15 19 -3 -14 5 10 -1 26 27 21 -3 -4 1 10 26 6 6 22 10 11 18 3 16 14 13 9 15 21 12 7 13
21 4 -50 63 1 33 6 -2 2 16 4 -1 -16 17 12 7 14 22 5 5 4 5 22 26 16 12 16 8 7 30 11 28 41 45 33 12 11 8 -1 23 0 -4 -0 7 9
Height
3151 3152 3152 3153 3154 3154 3154 3154 3153 3152 3151 3151 3149 3148 3147 3147 3147 3145 3145 3144 3143 3142 3140 3140 3141 3141 3141 3142 3142 3144 3146 3145 3144 3144 3145 3145 3147 3145 3145 3146 3146 3146 3147 3147 3147
3146 3147 3148 3148 3149 3149 3150 3149 3149 3148 3147 3147 3146 3144 3142 3143 3143 3142 3142 3141 3140 3139 3138 3137 3138 3139 3139 3138 3139 3142 3142 3144 3144 3143 3144 3145 3145 3145 3145 3144 3145 3146 3146 3145 3145
3141 3142 3143 3144 3145 3144 3145 3145 3145 3144 3143 3142 3142 3141 3139 3138 3140 3139 3138 3138 3137 3137 3136 3136 3136 3136 3137 3136 3136 3138 3140 3142 3141 3142 3141 3143 3145 3143 3143 3141 3142 3143 3144 3145 3144
3135 3137 3138 3139 3139 3140 3140 3141 3140 3141 3139 3138 3138 3138 3137 3136 3140 3136 3136 3135 3135 3135 3135 3134 3135 3134 3135 3135 3134 3135 3137 3137 3139 3138 3138 3140 3141 3142 3141 3141 3142 3141 3141 3142 3143
3129 3131 3132 3134 3135 3136 3136 3137 3137 3136 3135 3134 3133 3133 3134 3134 3135 3133 3133 3132 3132 3132 3131 3132 3132 3131 3133 3131 3132 3133 3134 3134 3134 3134 3135 3136 3137 3138 3138 3139 3139 3139 3139 3140 3141
3121 3123 3125 3127 3129 3130 3131 3132 3132 3132 3130 3129 3129 3129 3129 3130 3129 3129 3131 3130 3129 3129 3128 3129 3129 3130 3129 3130 3130 3129 3131 3131 3131 3132 3131 3132 3133 3132 3133 3133 3134 3134 3136 3138 3140
3115 3117 3119 3121 3122 3124 3126 3126 3127 3127 3126 3123 3123 3123 3124 3126 3125 3125 3127 3127 3126 3126 3126 3126 3127 3126 3126 3126 3126 3128 3128 3128 3128 3128 3127 3126 3124 3124 3128 3129 3128 3130 3131 3133 3134
3108 3111 3113 3115 3117 3118 3120 3121 3122 3121 3120 3119 3118 3118 3117 3120 3120 3122 3121 3123 3124 3122 3123 3123 3122 3123 3122 3123 3121 3125 3126 3125 3126 3124 3123 3123 3117 3122 3121 3122 3123 3125 3125 3125 3127
3099 3102 3104 3107 3109 3111 3112 3113 3114 3115 3113 3114 3114 3113 3113 3114 3115 3117 3118 3117 3117 3118 3117 3118 3118 3119 3119 3118 3118 3119 3121 3121 3121 3121 3118 3118 3116 3120 3119 3117 3117 3119 3120 3119 3121
3091 3092 3096 3099 3100 3103 3105 3105 3106 3107 3108 3107 3107 3110 3109 3108 3110 3113 3114 3113 3113 3113 3113 3113 3113 3114 3113 3112 3112 3113 3116 3116 3118 3117 3114 3113 3113 3115 3115 3114 3114 3114 3114 3114 3117
3084 3087 3089 3092 3093 3095 3098 3098 3102 3102 3100 3101 3099 3101 3103 3103 3104 3107 3108 3109 3108 3108 3110 3109 3108 3106 3109 3110 3111 3110 3111 3112 3113 3115 3112 3110 3109 3110 3111 3110 3109 3108 3109 3109 3111
3077 3080 3082 3085 3086 3088 3090 3090 3094 3096 3087 3088 3088 3089 3098 3098 3093 3100 3102 3104 3103 3103 3103 3105 3100 3106 3104 3104 3105 3107 3106 3107 3109 3111 3109 3107 3105 3106 3105 3104 3104 3102 3103 3103 3104
3072 3075 3078 3080 3081 3084 3084 3086 3090 3087 3082 3075 3081 3078 3088 3089 3083 3092 3095 3095 3096 3097 3097 3095 3099 3098 3098 3097 3098 3100 3101 3103 3104 3107 3105 3103 3097 3099 3101 3099 3098 3096 3096 3095 3096
3065 3067 3070 3075 3079 3075 3079 3084 3084 3084 3079 3067 3072 3069 3072 3075 3068 3080 3086 3089 3088 3089 3095 3089 3090 3093 3093 3092 3095 3091 3097 3098 3101 3102 3101 3101 3088 3091 3092 3092 3093 3091 3089 3088 3088
3056 3059 3062 3065 3070 3072 3075 3076 3078 3082 3080 3069 3063 3063 3065 3069 3065 3067 3076 3078 3078 3083 3088 3082 3084 3086 3085 3086 3092 3086 3093 3093 3096 3096 3095 3093 3097 3081 3087 3086 3086 3086 3085 3082 3081
3051 3052 3054 3055 3059 3062 3067 3072 3076 3080 3073 3063 3062 3059 3064 3066 3065 3065 3068 3071 3073 3078 3077 3077 3082 3082 3082 3083 3082 3084 3086 3089 3090 3091 3087 3086 3090 3067 3078 3077 3077 3078 3079 3078 3076
3047 3047 3049 3051 3055 3056 3059 3066 3070 3068 3064 3061 3059 3056 3063 3064 3064 3064 3063 3065 3069 3072 3068 3073 3067 3073 3079 3078 3079 3078 3081 3083 3087 3087 3078 3080 3081 3068 3071 3071 3072 3073 3074 3073 3073
3041 3043 3044 3046 3049 3051 3053 3057 3058 3049 3049 3053 3056 3054 3056 3059 3061 3063 3060 3061 3064 3066 3067 3067 3063 3064 3066 3066 3071 3072 3074 3071 3077 3078 3073 3076 3069 3066 3064 3063 3064 3067 3070 3070 3070
3035 3036 3038 3042 3044 3046 3048 3049 3044 3046 3046 3047 3048 3052 3053 3053 3054 3055 3055 3055 3058 3061 3064 3063 3056 3056 3059 3060 3065 3066 3063 3068 3068 3065 3068 3066 3064 3062 3060 3060 3059 3060 3062 3064 3066
3028 3029 3034 3037 3038 3040 3042 3039 3036 3039 3040 3043 3044 3046 3047 3051 3052 3051 3052 3049 3052 3055 3059 3059 3055 3052 3052 3053 3057 3057 3063 3066 3063 3063 3063 3056 3057 3054 3055 3057 3057 3058 3059 3061 3065
3023 3020 3025 3028 3031 3032 3029 3028 3033 3035 3041 3042 3041 3041 3043 3044 3047 3047 3048 3049 3046 3048 3048 3052 3055 3049 3051 3049 3049 3053 3054 3056 3055 3055 3052 3055 3053 3052 3054 3054 3056 3057 3056 3054 3058
3012 3012 3014 3020 3022 3018 3020 3022 3027 3031 3036 3039 3038 3037 3044 3043 3045 3045 3042 3043 3045 3045 3045 3045 3045 3045 3046 3050 3050 3049 3047 3048 3045 3051 3051 3051 3051 3053 3053 3053 3054 3056 3057 3056 3056
3002 3004 3008 3010 3007 3010 3015 3016 3019 3025 3031 3033 3035 3036 3040 3042 3044 3044 3041 3040 3042 3044 3041 3041 3041 3043 3042 3045 3045 3045 3044 3044 3044 3043 3044 3049 3046 3051 3052 3051 3052 3052 3053 3052 3053
2996 2996 2997 2998 3000 3006 3009 3009 3014 3018 3025 3028 3030 3033 3035 3037 3039 3039 3042 3040 3039 3043 3043 3042 3042 3041 3045 3044 3043 3042 3042 3040 3045 3046 3046 3045 3043 3042 3047 3047 3046 3047 3047 3046 3045
2988 2987 2989 2989 2993 2997 3004 3005 3009 3013 3017 3023 3024 3027 3031 3032 3033 3033 3036 3037 3034 3038 3042 3042 3040 3040 3040 3040 3040 3041 3040 3040 3038 3039 3042 3040 3041 3037 3038 3040 3039 3038 3040 3039 3038
2979 2982 2986 2987 2989 2991 2993 2997 3002 3005 3010 3015 3019 3021 3024 3025 3027 3029 3032 3030 3031 3032 3034 3035 3033 3036 3033 3034 3036 3036 3034 3035 3033 3033 3032 3032 3032 3033 3032 3032 3032 3030 3030 3032 3032
2972 2974 2977 2978 2983 2982 2984 2986 2991 2998 3002 3008 3012 3016 3017 3017 3023 3025 3027 3027 3027 3027 3029 3030 3029 3032 3030 3030 3031 3030 3026 3028 3024 3024 3025 3027 3028 3028 3026 3025 3025 3025 3025 3025 3023